| time (UTC) | temp F | wind direction | speed knots | gust knots | rain 1hr in | rain 24hr in | rain mn in | humidity % | barometer mb |
| 20260507084136 | 67 | 45 | 0.0 | 0.0 | 0.00 | 0.07 | 0.07 | 93 | 1009.0 |
| 20260507083633 | 67 | 330 | 0.0 | 0.0 | 0.00 | 0.07 | 0.07 | 93 | 1009.1 |
| 20260507083130 | 67 | 299 | 0.0 | 0.0 | 0.00 | 0.07 | 0.07 | 93 | 1009.1 |
| 20260507082625 | 67 | 290 | 0.0 | 0.0 | 0.00 | 0.07 | 0.07 | 93 | 1009.4 |
| 20260507082122 | 67 | 53 | 0.0 | 0.0 | 0.00 | 0.07 | 0.07 | 93 | 1009.5 |
| 20260507081619 | 67 | 260 | 0.0 | 0.0 | 0.00 | 0.07 | 0.07 | 93 | 1009.5 |
| 20260507081115 | 67 | 8 | 0.0 | 0.0 | 0.00 | 0.07 | 0.07 | 93 | 1009.8 |
| 20260507080612 | 67 | 255 | 0.9 | 1.7 | 0.00 | 0.07 | 0.07 | 93 | 1009.8 |
| 20260507080108 | 67 | 199 | 0.9 | 0.9 | 0.05 | 0.07 | 0.07 | 93 | 1010.1 |
| 20260507075603 | 67 | 277 | 0.0 | 0.0 | 0.05 | 0.07 | 0.07 | 93 | 1009.9 |
| 20260507075100 | 67 | 288 | 0.9 | 0.9 | 0.00 | 0.06 | 0.06 | 92 | 1009.8 |
| 20260507074557 | 67 | 278 | 0.9 | 0.9 | 0.00 | 0.06 | 0.06 | 92 | 1009.9 |
| 20260507074055 | 67 | 216 | 0.9 | 0.9 | 0.07 | 0.06 | 0.06 | 92 | 1009.4 |
| 20260507073550 | 67 | 196 | 0.9 | 1.7 | 0.07 | 0.06 | 0.06 | 92 | 1009.5 |
| 20260507073047 | 67 | 305 | 0.9 | 0.9 | 0.00 | 0.05 | 0.05 | 91 | 1009.8 |
| 20260507072545 | 67 | 297 | 0.0 | 0.0 | 0.00 | 0.05 | 0.05 | 90 | 1009.6 |
| 20260507072042 | 68 | 336 | 0.9 | 0.9 | 0.00 | 0.05 | 0.05 | 89 | 1009.5 |
| 20260507071539 | 68 | 141 | 0.9 | 1.7 | 0.05 | 0.05 | 0.05 | 89 | 1009.3 |
| 20260507071036 | 68 | 247 | 0.9 | 1.7 | 0.12 | 0.05 | 0.05 | 88 | 1009.3 |
| 20260507070533 | 68 | 233 | 0.0 | 0.9 | 0.12 | 0.04 | 0.04 | 88 | 1009.4 |
| 20260507070030 | 68 | 209 | 0.9 | 1.7 | 0.17 | 0.03 | 0.03 | 87 | 1009.4 |
| 20260507065526 | 69 | 159 | 2.6 | 4.3 | 0.12 | 0.02 | 0.02 | 86 | 1009.6 |
| 20260507065023 | 69 | 175 | 2.6 | 4.3 | 0.00 | 0.00 | 0.00 | 85 | 1010.0 |
| 20260507064521 | 69 | 233 | 0.0 | 0.0 | 0.00 | 0.00 | 0.00 | 85 | 1010.1 |
| 20260507064020 | 69 | 193 | 0.9 | 0.9 | 0.00 | 0.00 | 0.00 | 85 | 1010.2 |
| 20260507063516 | 69 | 191 | 0.0 | 0.0 | 0.00 | 0.00 | 0.00 | 86 | 1010.2 |
| 20260507063014 | 69 | 206 | 0.0 | 0.9 | 0.00 | 0.00 | 0.00 | 86 | 1010.0 |
| 20260507062510 | 69 | 173 | 0.0 | 0.9 | 0.00 | 0.00 | 0.00 | 86 | 1010.1 |
| 20260507062008 | 69 | 195 | 0.0 | 0.0 | 0.00 | 0.00 | 0.00 | 87 | 1010.4 |
| 20260507061505 | 69 | 240 | 0.0 | 0.0 | 0.00 | 0.00 | 0.00 | 87 | 1010.5 |
| 20260507061004 | 69 | 271 | 0.0 | 0.0 | 0.00 | 0.00 | 0.00 | 87 | 1010.6 |
| 20260507060501 | 69 | 248 | 0.0 | 0.0 | 0.00 | 0.00 | 0.00 | 86 | 1010.7 |
| 20260507055956 | 69 | 250 | 0.0 | 0.0 | 0.00 | 0.00 | 0.00 | 86 | 1010.5 |
| 20260507055452 | 69 | 249 | 0.0 | 0.0 | 0.00 | 0.00 | 0.00 | 85 | 1010.5 |
| 20260507054949 | 69 | 259 | 0.0 | 0.0 | 0.00 | 0.00 | 0.00 | 85 | 1010.6 |
| 20260507054445 | 69 | 327 | 0.0 | 0.0 | 0.00 | 0.00 | 0.00 | 85 | 1010.5 |
| 20260507053942 | 69 | 271 | 0.0 | 0.0 | 0.00 | 0.00 | 0.00 | 84 | 1010.5 |
| 20260507053440 | 69 | 292 | 0.0 | 0.0 | 0.00 | 0.00 | 0.00 | 84 | 1010.5 |
| 20260507052938 | 69 | 288 | 0.0 | 0.0 | 0.00 | 0.00 | 0.00 | 84 | 1010.5 |
| 20260507052436 | 69 | 185 | 0.0 | 0.0 | 0.00 | 0.00 | 0.00 | 84 | 1010.5 |
| 20260507051932 | 69 | 231 | 0.0 | 0.0 | 0.00 | 0.00 | 0.00 | 83 | 1010.5 |
| 20260507051430 | 69 | 182 | 0.0 | 0.0 | 0.00 | 0.00 | 0.00 | 83 | 1010.3 |
| 20260507050927 | 69 | 172 | 0.9 | 0.9 | 0.00 | 0.00 | 0.00 | 83 | 1010.5 |
| 20260507050423 | 69 | 199 | 0.0 | 0.0 | 0.00 | 0.00 | 0.00 | 83 | 1010.7 |
| 20260507045920 | 70 | 209 | 0.0 | 0.0 | 0.00 | 0.00 | 0.00 | 83 | 1010.6 |
| 20260507045416 | 69 | 88 | 0.0 | 0.0 | 0.00 | 0.00 | 0.00 | 83 | 1010.6 |
| 20260507044914 | 69 | 226 | 0.0 | 0.0 | 0.00 | 0.00 | 0.00 | 83 | 1010.6 |
| 20260507044410 | 69 | 228 | 0.0 | 0.0 | 0.00 | 0.00 | 0.00 | 83 | 1010.5 |
| 20260507043907 | 69 | 229 | 0.0 | 0.0 | 0.00 | 0.00 | 0.00 | 83 | 1010.4 |
| 20260507043403 | 69 | 213 | 0.0 | 0.0 | 0.00 | 0.00 | 0.00 | 83 | 1010.6 |
| 20260507042900 | 69 | 233 | 0.0 | 0.0 | 0.00 | 0.00 | 0.00 | 82 | 1010.5 |
| 20260507042356 | 69 | 234 | 0.0 | 0.0 | 0.00 | 0.00 | 0.00 | 82 | 1010.1 |
| 20260507041852 | 69 | 230 | 0.0 | 0.0 | 0.00 | 0.00 | 0.00 | 82 | 1010.6 |
| 20260507041349 | 69 | 224 | 0.0 | 0.0 | 0.00 | 0.00 | 0.00 | 82 | 1010.6 |
| 20260507040847 | 69 | 209 | 0.0 | 0.0 | 0.00 | 0.00 | 0.00 | 82 | 1010.6 |
| 20260507040342 | 69 | 203 | 0.0 | 0.0 | 0.00 | 0.00 | 0.00 | 82 | 1010.6 |
| 20260507035838 | 69 | 232 | 0.0 | 0.0 | 0.00 | 0.00 | 0.00 | 81 | 1010.3 |
| 20260507035334 | 69 | 225 | 0.0 | 0.9 | 0.00 | 0.00 | 0.00 | 82 | 1010.5 |
| 20260507034832 | 69 | 236 | 0.0 | 0.0 | 0.00 | 0.00 | 0.00 | 81 | 1010.9 |
| 20260507034328 | 69 | 239 | 0.0 | 0.0 | 0.00 | 0.00 | 0.00 | 80 | 1010.7 |
| 20260507033826 | 69 | 248 | 0.0 | 0.0 | 0.00 | 0.00 | 0.00 | 79 | 1010.8 |
| 20260507033324 | 70 | 256 | 0.0 | 0.0 | 0.00 | 0.00 | 0.00 | 80 | 1010.6 |
| 20260507032821 | 70 | 169 | 0.0 | 0.0 | 0.00 | 0.00 | 0.00 | 81 | 1010.6 |
| 20260507032317 | 70 | 211 | 0.0 | 0.9 | 0.00 | 0.00 | 0.00 | 81 | 1010.7 |
| 20260507031814 | 70 | 206 | 0.0 | 0.9 | 0.00 | 0.00 | 0.00 | 80 | 1010.8 |
| 20260507031311 | 70 | 217 | 0.0 | 0.0 | 0.00 | 0.00 | 0.00 | 80 | 1010.8 |
| 20260507030807 | 70 | 198 | 0.9 | 1.7 | 0.00 | 0.00 | 0.00 | 80 | 1010.8 |
| 20260507030305 | 70 | 218 | 0.0 | 0.9 | 0.00 | 0.00 | 0.00 | 80 | 1010.6 |
| 20260507025801 | 69 | 209 | 0.0 | 0.0 | 0.00 | 0.00 | 0.00 | 80 | 1010.5 |
| 20260507025259 | 69 | 258 | 0.0 | 0.0 | 0.00 | 0.00 | 0.00 | 77 | 1010.7 |
| 20260507024757 | 70 | 260 | 0.0 | 0.0 | 0.00 | 0.00 | 0.00 | 76 | 1010.9 |
| 20260507024254 | 70 | 227 | 0.0 | 0.0 | 0.00 | 0.00 | 0.00 | 78 | 1010.5 |
| 20260507023749 | 71 | 264 | 0.0 | 0.0 | 0.00 | 0.00 | 0.00 | 76 | 1010.4 |
| 20260507023246 | 71 | 247 | 0.0 | 0.9 | 0.00 | 0.00 | 0.00 | 76 | 1010.3 |
| 20260507022743 | 71 | 203 | 0.9 | 0.9 | 0.00 | 0.00 | 0.00 | 76 | 1010.6 |
| 20260507022239 | 71 | 214 | 1.7 | 1.7 | 0.00 | 0.00 | 0.00 | 76 | 1010.8 |
| 20260507021736 | 71 | 230 | 0.9 | 0.9 | 0.00 | 0.00 | 0.00 | 76 | 1010.6 |
| 20260507021231 | 71 | 193 | 0.9 | 0.9 | 0.00 | 0.00 | 0.00 | 76 | 1010.5 |
| 20260507020730 | 71 | 178 | 1.7 | 1.7 | 0.00 | 0.00 | 0.00 | 76 | 1010.6 |
| 20260507020226 | 71 | 172 | 0.0 | 0.0 | 0.00 | 0.00 | 0.00 | 76 | 1010.6 |
| 20260507015724 | 71 | 217 | 0.0 | 0.9 | 0.00 | 0.00 | 0.00 | 75 | 1010.3 |
| 20260507015221 | 71 | 176 | 0.0 | 0.9 | 0.00 | 0.00 | 0.00 | 75 | 1010.5 |
| 20260507014717 | 71 | 181 | 1.7 | 1.7 | 0.00 | 0.00 | 0.00 | 75 | 1010.7 |
| 20260507014214 | 71 | 176 | 0.0 | 0.0 | 0.00 | 0.00 | 0.00 | 75 | 1010.6 |
| 20260507013710 | 72 | 225 | 1.7 | 1.7 | 0.00 | 0.00 | 0.00 | 73 | 1010.7 |
| 20260507013208 | 72 | 212 | 0.9 | 1.7 | 0.00 | 0.00 | 0.00 | 73 | 1010.6 |
| 20260507012705 | 72 | 149 | 0.9 | 1.7 | 0.00 | 0.00 | 0.00 | 72 | 1010.6 |
| 20260507012201 | 72 | 207 | 0.9 | 0.9 | 0.00 | 0.00 | 0.00 | 72 | 1010.6 |
| 20260507011659 | 72 | 177 | 3.5 | 4.3 | 0.00 | 0.00 | 0.00 | 72 | 1010.7 |
| 20260507011155 | 72 | 216 | 1.7 | 1.7 | 0.00 | 0.00 | 0.00 | 71 | 1010.7 |
| 20260507010654 | 72 | 237 | 0.9 | 0.9 | 0.00 | 0.00 | 0.00 | 71 | 1010.4 |
| 20260507010150 | 72 | 205 | 2.6 | 4.3 | 0.00 | 0.00 | 0.00 | 70 | 1010.7 |
| 20260507005648 | 72 | 201 | 0.9 | 0.9 | 0.00 | 0.00 | 0.00 | 70 | 1010.6 |
| 20260507005144 | 73 | 220 | 0.9 | 0.9 | 0.00 | 0.00 | 0.00 | 71 | 1010.5 |
| 20260507004641 | 73 | 224 | 1.7 | 1.7 | 0.00 | 0.00 | 0.00 | 70 | 1010.4 |
| 20260507004139 | 73 | 220 | 1.7 | 2.6 | 0.00 | 0.00 | 0.00 | 69 | 1010.3 |
| 20260507003635 | 73 | 190 | 1.7 | 1.7 | 0.00 | 0.00 | 0.00 | 69 | 1010.2 |
| 20260507003130 | 74 | 206 | 1.7 | 2.6 | 0.00 | 0.00 | 0.00 | 69 | 1010.4 |
| 20260507002626 | 74 | 198 | 0.9 | 1.7 | 0.00 | 0.00 | 0.00 | 68 | 1010.3 |
| 20260507002122 | 74 | 205 | 0.9 | 1.7 | 0.00 | 0.00 | 0.00 | 68 | 1010.2 |
| 20260507001619 | 74 | 221 | 1.7 | 1.7 | 0.00 | 0.00 | 0.00 | 68 | 1010.2 |
| 20260507001117 | 74 | 195 | 4.3 | 6.1 | 0.00 | 0.00 | 0.00 | 70 | 1010.1 |
| 20260507000613 | 74 | 183 | 0.9 | 1.7 | 0.00 | 0.00 | 0.00 | 71 | 1009.9 |
| 20260507000108 | 74 | 212 | 3.5 | 6.1 | 0.00 | 0.00 | 0.00 | 71 | 1009.8 |
| 20260506235606 | 74 | 194 | 4.3 | 5.2 | 0.00 | 0.00 | 0.00 | 70 | 1010.0 |
| 20260506235106 | 75 | 237 | 1.7 | 2.6 | 0.00 | 0.00 | 0.00 | 70 | 1009.9 |
| 20260506234604 | 75 | 237 | 3.5 | 6.1 | 0.00 | 0.00 | 0.00 | 70 | 1009.9 |
| 20260506234101 | 75 | 211 | 2.6 | 2.6 | 0.00 | 0.00 | 0.00 | 71 | 1009.9 |
| 20260506233558 | 75 | 225 | 2.6 | 5.2 | 0.00 | 0.00 | 0.00 | 72 | 1009.9 |
| 20260506233054 | 75 | 198 | 2.6 | 4.3 | 0.00 | 0.00 | 0.00 | 71 | 1009.9 |
| 20260506232550 | 75 | 215 | 2.6 | 2.6 | 0.00 | 0.00 | 0.00 | 73 | 1009.6 |
| 20260506232046 | 75 | 185 | 2.6 | 5.2 | 0.00 | 0.00 | 0.00 | 73 | 1009.8 |
| 20260506231544 | 75 | 215 | 4.3 | 6.1 | 0.00 | 0.00 | 0.00 | 72 | 1009.5 |
| 20260506231042 | 76 | 227 | 1.7 | 1.7 | 0.00 | 0.00 | 0.00 | 73 | 1009.8 |
| 20260506230538 | 75 | 229 | 2.6 | 4.3 | 0.00 | 0.00 | 0.00 | 74 | 1009.6 |
| 20260506230035 | 75 | 201 | 2.6 | 2.6 | 0.00 | 0.00 | 0.00 | 74 | 1009.5 |
| 20260506225532 | 76 | 181 | 5.2 | 7.0 | 0.00 | 0.00 | 0.00 | 73 | 1009.3 |
| 20260506225028 | 75 | 192 | 4.3 | 6.1 | 0.00 | 0.00 | 0.00 | 74 | 1009.3 |
| 20260506224525 | 74 | 216 | 3.5 | 4.3 | 0.00 | 0.00 | 0.00 | 77 | 1009.4 |
| 20260506224022 | 74 | 179 | 2.6 | 2.6 | 0.00 | 0.00 | 0.00 | 78 | 1009.4 |
| 20260506223517 | 75 | 160 | 0.9 | 0.9 | 0.00 | 0.00 | 0.00 | 77 | 1009.4 |
| 20260506223014 | 75 | 169 | 3.5 | 4.3 | 0.00 | 0.00 | 0.00 | 75 | 1009.5 |
| 20260506222511 | 75 | 219 | 0.9 | 1.7 | 0.00 | 0.00 | 0.00 | 76 | 1009.3 |
| 20260506222008 | 76 | 207 | 0.9 | 1.7 | 0.00 | 0.00 | 0.00 | 76 | 1009.5 |
| 20260506221505 | 75 | 206 | 0.9 | 0.9 | 0.00 | 0.00 | 0.00 | 75 | 1009.4 |
| 20260506221003 | 75 | 250 | 0.9 | 1.7 | 0.00 | 0.00 | 0.00 | 75 | 1009.4 |
| 20260506220458 | 75 | 199 | 0.9 | 0.9 | 0.00 | 0.00 | 0.00 | 76 | 1009.6 |
| 20260506215954 | 75 | 189 | 3.5 | 4.3 | 0.00 | 0.00 | 0.00 | 76 | 1009.5 |
| 20260506215451 | 75 | 195 | 0.9 | 1.7 | 0.00 | 0.00 | 0.00 | 77 | 1009.6 |
| 20260506214947 | 75 | 222 | 0.9 | 0.9 | 0.00 | 0.00 | 0.00 | 76 | 1009.5 |
| 20260506214444 | 76 | 211 | 2.6 | 2.6 | 0.00 | 0.00 | 0.00 | 73 | 1009.4 |
| 20260506213942 | 76 | 164 | 1.7 | 4.3 | 0.00 | 0.00 | 0.00 | 74 | 1010.0 |
| 20260506213439 | 76 | 210 | 0.9 | 0.9 | 0.00 | 0.00 | 0.00 | 73 | 1009.7 |
| 20260506212936 | 75 | 208 | 3.5 | 4.3 | 0.00 | 0.00 | 0.00 | 72 | 1010.0 |
| 20260506212432 | 76 | 168 | 0.9 | 0.9 | 0.00 | 0.00 | 0.00 | 73 | 1010.1 |
| 20260506211932 | 77 | 218 | 0.9 | 0.9 | 0.00 | 0.00 | 0.00 | 69 | 1009.8 |
| 20260506211428 | 77 | 199 | 0.9 | 1.7 | 0.00 | 0.00 | 0.00 | 69 | 1009.2 |
| 20260506210926 | 77 | 166 | 0.9 | 2.6 | 0.00 | 0.00 | 0.00 | 68 | 1009.9 |
| 20260506210422 | 77 | 208 | 0.9 | 1.7 | 0.00 | 0.00 | 0.00 | 69 | 1009.8 |
| 20260506205919 | 77 | 207 | 0.9 | 0.9 | 0.00 | 0.00 | 0.00 | 70 | 1010.1 |
| 20260506205415 | 77 | 219 | 0.0 | 0.9 | 0.00 | 0.00 | 0.00 | 70 | 1010.3 |
| 20260506204912 | 77 | 200 | 2.6 | 2.6 | 0.00 | 0.00 | 0.00 | 69 | 1010.4 |
| 20260506204410 | 77 | 167 | 0.0 | 0.9 | 0.00 | 0.00 | 0.00 | 69 | 1010.5 |
| 20260506203907 | 78 | 170 | 1.7 | 2.6 | 0.00 | 0.00 | 0.00 | 68 | 1010.4 |
| 20260506203404 | 78 | 217 | 1.7 | 2.6 | 0.00 | 0.00 | 0.00 | 67 | 1010.5 |
| 20260506202901 | 78 | 222 | 0.9 | 0.9 | 0.00 | 0.00 | 0.00 | 67 | 1010.7 |
| 20260506202358 | 77 | 216 | 0.0 | 0.9 | 0.00 | 0.00 | 0.00 | 69 | 1010.5 |
| 20260506201854 | 77 | 257 | 0.9 | 0.9 | 0.00 | 0.00 | 0.00 | 69 | 1010.7 |
| 20260506201352 | 77 | 218 | 0.0 | 0.9 | 0.00 | 0.00 | 0.00 | 70 | 1010.8 |
| 20260506200848 | 76 | 197 | 1.7 | 1.7 | 0.00 | 0.00 | 0.00 | 69 | 1010.6 |
| 20260506200344 | 77 | 171 | 2.6 | 2.6 | 0.00 | 0.00 | 0.00 | 71 | 1010.8 |
| 20260506195840 | 77 | 175 | 2.6 | 4.3 | 0.00 | 0.00 | 0.00 | 68 | 1010.7 |
| 20260506195338 | 77 | 223 | 0.0 | 0.0 | 0.00 | 0.00 | 0.00 | 70 | 1011.0 |
| 20260506194835 | 77 | 177 | 2.6 | 4.3 | 0.00 | 0.00 | 0.00 | 70 | 1011.1 |
| 20260506194331 | 76 | 80 | 0.0 | 0.0 | 0.00 | 0.00 | 0.00 | 71 | 1011.1 |
| 20260506193829 | 77 | 158 | 1.7 | 1.7 | 0.00 | 0.00 | 0.00 | 71 | 1011.1 |
| 20260506193326 | 78 | 168 | 2.6 | 2.6 | 0.00 | 0.00 | 0.00 | 67 | 1011.4 |
| 20260506192822 | 78 | 318 | 0.9 | 1.7 | 0.00 | 0.00 | 0.00 | 67 | 1011.4 |
| 20260506192319 | 78 | 181 | 1.7 | 1.7 | 0.00 | 0.00 | 0.00 | 68 | 1011.4 |
| 20260506191816 | 78 | 177 | 0.0 | 0.9 | 0.00 | 0.00 | 0.00 | 68 | 1011.5 |
| 20260506191312 | 78 | 181 | 1.7 | 1.7 | 0.00 | 0.00 | 0.00 | 68 | 1011.7 |
| 20260506190809 | 78 | 281 | 0.9 | 0.9 | 0.00 | 0.00 | 0.00 | 66 | 1011.4 |
| 20260506190306 | 78 | 175 | 0.9 | 2.6 | 0.00 | 0.00 | 0.00 | 66 | 1011.8 |
| 20260506185803 | 78 | 161 | 0.9 | 0.9 | 0.00 | 0.00 | 0.00 | 68 | 1011.8 |
| 20260506185259 | 78 | 214 | 1.7 | 1.7 | 0.00 | 0.00 | 0.00 | 67 | 1011.8 |
| 20260506184756 | 78 | 180 | 2.6 | 4.3 | 0.00 | 0.00 | 0.00 | 68 | 1011.8 |
| 20260506184254 | 77 | 249 | 0.0 | 0.0 | 0.00 | 0.00 | 0.00 | 70 | 1011.7 |
| 20260506183751 | 77 | 207 | 1.7 | 2.6 | 0.00 | 0.00 | 0.00 | 67 | 1011.6 |
| 20260506183251 | 77 | 240 | 3.5 | 4.3 | 0.00 | 0.00 | 0.00 | 68 | 1011.9 |
| 20260506182749 | 78 | 230 | 0.0 | 0.0 | 0.00 | 0.00 | 0.00 | 67 | 1011.9 |
| 20260506182246 | 77 | 182 | 2.6 | 2.6 | 0.00 | 0.00 | 0.00 | 69 | 1012.0 |
| 20260506181743 | 77 | 180 | 1.7 | 1.7 | 0.00 | 0.00 | 0.00 | 67 | 1012.2 |
| 20260506181241 | 77 | 199 | 1.7 | 2.6 | 0.00 | 0.00 | 0.00 | 67 | 1012.4 |
| 20260506180738 | 78 | 173 | 1.7 | 1.7 | 0.00 | 0.00 | 0.00 | 67 | 1012.4 |
| 20260506180234 | 79 | 212 | 1.7 | 4.3 | 0.00 | 0.00 | 0.00 | 66 | 1012.6 |
| 20260506175730 | 79 | 263 | 0.9 | 0.9 | 0.00 | 0.00 | 0.00 | 64 | 1012.5 |
| 20260506175227 | 78 | 181 | 3.5 | 6.1 | 0.00 | 0.00 | 0.00 | 65 | 1012.5 |
| 20260506174725 | 78 | 168 | 1.7 | 2.6 | 0.00 | 0.00 | 0.00 | 66 | 1012.5 |
| 20260506174221 | 78 | 172 | 4.3 | 5.2 | 0.00 | 0.00 | 0.00 | 66 | 1012.5 |
| 20260506173719 | 77 | 180 | 2.6 | 4.3 | 0.00 | 0.00 | 0.00 | 67 | 1012.7 |
| 20260506173216 | 77 | 171 | 3.5 | 4.3 | 0.00 | 0.00 | 0.00 | 67 | 1012.4 |
| 20260506172713 | 77 | 169 | 3.5 | 7.0 | 0.00 | 0.00 | 0.00 | 66 | 1012.5 |
| 20260506172209 | 78 | 212 | 1.7 | 1.7 | 0.00 | 0.00 | 0.00 | 63 | 1012.7 |
| 20260506171707 | 77 | 207 | 3.5 | 5.2 | 0.00 | 0.00 | 0.00 | 67 | 1012.6 |
| 20260506171204 | 77 | 195 | 4.3 | 5.2 | 0.00 | 0.00 | 0.00 | 68 | 1012.6 |
| 20260506170702 | 76 | 226 | 1.7 | 1.7 | 0.00 | 0.00 | 0.00 | 69 | 1012.4 |
| 20260506170158 | 76 | 167 | 2.6 | 5.2 | 0.00 | 0.00 | 0.00 | 69 | 1012.7 |
| 20260506165657 | 77 | 169 | 4.3 | 6.1 | 0.00 | 0.00 | 0.00 | 68 | 1012.7 |
| 20260506165153 | 77 | 270 | 1.7 | 1.7 | 0.00 | 0.00 | 0.00 | 67 | 1012.8 |
| 20260506164650 | 76 | 210 | 4.3 | 6.1 | 0.00 | 0.00 | 0.00 | 68 | 1012.9 |
| 20260506164148 | 77 | 181 | 3.5 | 5.2 | 0.00 | 0.00 | 0.00 | 69 | 1013.1 |
| 20260506163644 | 76 | 207 | 6.1 | 7.0 | 0.00 | 0.00 | 0.00 | 70 | 1013.1 |
| 20260506163139 | 76 | 204 | 4.3 | 5.2 | 0.00 | 0.00 | 0.00 | 72 | 1013.3 |
| 20260506162635 | 75 | 206 | 0.9 | 1.7 | 0.00 | 0.00 | 0.00 | 72 | 1013.4 |
| 20260506162133 | 74 | 193 | 3.5 | 5.2 | 0.00 | 0.00 | 0.00 | 73 | 1013.4 |
| 20260506161630 | 74 | 181 | 3.5 | 5.2 | 0.00 | 0.00 | 0.00 | 74 | 1013.6 |
| 20260506161127 | 75 | 177 | 3.5 | 4.3 | 0.00 | 0.00 | 0.00 | 74 | 1013.7 |
| 20260506160624 | 74 | 176 | 2.6 | 4.3 | 0.00 | 0.00 | 0.00 | 74 | 1013.8 |
| 20260506160121 | 74 | 156 | 2.6 | 2.6 | 0.00 | 0.00 | 0.00 | 74 | 1014.1 |
| 20260506155620 | 74 | 177 | 1.7 | 1.7 | 0.00 | 0.00 | 0.00 | 74 | 1014.2 |
| 20260506155116 | 73 | 123 | 1.7 | 2.6 | 0.00 | 0.00 | 0.00 | 75 | 1014.2 |
| 20260506153219 | 73 | 170 | 1.7 | 1.7 | 0.00 | 0.00 | 0.00 | 76 | 1014.2 |
| 20260506152715 | 72 | 180 | 2.6 | 2.6 | 0.00 | 0.00 | 0.00 | 77 | 1014.2 |
| 20260506152213 | 72 | 155 | 3.5 | 4.3 | 0.00 | 0.00 | 0.00 | 78 | 1014.3 |
| 20260506151712 | 72 | 177 | 0.9 | 0.9 | 0.00 | 0.00 | 0.00 | 77 | 1014.5 |
| 20260506151208 | 72 | 165 | 4.3 | 5.2 | 0.00 | 0.00 | 0.00 | 77 | 1014.1 |
| 20260506150704 | 72 | 108 | 2.6 | 4.3 | 0.00 | 0.00 | 0.00 | 77 | 1014.4 |
| 20260506150201 | 72 | 171 | 0.9 | 0.9 | 0.00 | 0.00 | 0.00 | 77 | 1014.6 |
| 20260506145658 | 72 | 189 | 1.7 | 1.7 | 0.00 | 0.00 | 0.00 | 77 | 1014.5 |
| 20260506145155 | 72 | 175 | 2.6 | 4.3 | 0.00 | 0.00 | 0.00 | 76 | 1014.6 |
| 20260506144653 | 72 | 255 | 1.7 | 4.3 | 0.00 | 0.00 | 0.00 | 76 | 1014.6 |
| 20260506144149 | 73 | 100 | 1.7 | 2.6 | 0.00 | 0.00 | 0.00 | 75 | 1014.2 |
| 20260506143647 | 72 | 187 | 3.5 | 6.1 | 0.00 | 0.00 | 0.00 | 74 | 1014.3 |
| 20260506143145 | 73 | 180 | 4.3 | 5.2 | 0.00 | 0.00 | 0.00 | 74 | 1014.3 |
| 20260506142643 | 73 | 143 | 2.6 | 5.2 | 0.00 | 0.00 | 0.00 | 74 | 1014.2 |
| 20260506142140 | 73 | 200 | 5.2 | 7.0 | 0.00 | 0.00 | 0.00 | 73 | 1013.8 |
| 20260506141638 | 73 | 180 | 3.5 | 4.3 | 0.00 | 0.00 | 0.00 | 72 | 1014.1 |
| 20260506141136 | 73 | 185 | 2.6 | 5.2 | 0.00 | 0.00 | 0.00 | 73 | 1014.0 |
| 20260506140633 | 73 | 196 | 3.5 | 6.1 | 0.00 | 0.00 | 0.00 | 73 | 1014.0 |
| 20260506140130 | 73 | 203 | 0.9 | 1.7 | 0.00 | 0.00 | 0.00 | 74 | 1014.0 |
| 20260506135627 | 73 | 165 | 1.7 | 2.6 | 0.00 | 0.00 | 0.00 | 74 | 1014.0 |
| 20260506135123 | 72 | 206 | 2.6 | 4.3 | 0.00 | 0.00 | 0.00 | 74 | 1013.9 |
| 20260506134620 | 73 | 177 | 3.5 | 6.1 | 0.00 | 0.00 | 0.00 | 74 | 1013.9 |
| 20260506134116 | 73 | 189 | 2.6 | 4.3 | 0.00 | 0.00 | 0.00 | 74 | 1014.0 |
| 20260506133614 | 72 | 179 | 3.5 | 5.2 | 0.00 | 0.00 | 0.00 | 75 | 1014.0 |
| 20260506133110 | 72 | 201 | 2.6 | 4.3 | 0.00 | 0.00 | 0.00 | 77 | 1014.0 |
| 20260506132608 | 71 | 191 | 3.5 | 5.2 | 0.00 | 0.00 | 0.00 | 77 | 1014.0 |
| 20260506132104 | 71 | 214 | 4.3 | 6.1 | 0.00 | 0.00 | 0.00 | 78 | 1014.0 |
| 20260506131602 | 71 | 193 | 2.6 | 4.3 | 0.00 | 0.00 | 0.00 | 79 | 1013.9 |
| 20260506131058 | 70 | 154 | 3.5 | 4.3 | 0.00 | 0.00 | 0.00 | 79 | 1013.8 |
| 20260506130555 | 70 | 159 | 3.5 | 5.2 | 0.00 | 0.00 | 0.00 | 79 | 1014.0 |
| 20260506130053 | 70 | 172 | 1.7 | 5.2 | 0.00 | 0.00 | 0.00 | 81 | 1014.0 |
| 20260506125551 | 69 | 165 | 2.6 | 4.3 | 0.00 | 0.00 | 0.00 | 81 | 1014.2 |
| 20260506125048 | 69 | 184 | 2.6 | 4.3 | 0.00 | 0.00 | 0.00 | 82 | 1014.2 |
| 20260506124546 | 69 | 196 | 3.5 | 5.2 | 0.00 | 0.00 | 0.00 | 82 | 1014.2 |
| 20260506124043 | 68 | 232 | 1.7 | 1.7 | 0.00 | 0.00 | 0.00 | 83 | 1014.4 |
| 20260506123541 | 68 | 202 | 1.7 | 2.6 | 0.00 | 0.00 | 0.00 | 83 | 1014.7 |
| 20260506123039 | 68 | 158 | 2.6 | 4.3 | 0.00 | 0.00 | 0.00 | 83 | 1014.4 |
| 20260506122535 | 68 | 180 | 0.0 | 0.9 | 0.00 | 0.00 | 0.00 | 84 | 1014.3 |
| 20260506122034 | 67 | 243 | 2.6 | 2.6 | 0.00 | 0.00 | 0.00 | 84 | 1014.3 |
| 20260506121531 | 67 | 158 | 0.9 | 1.7 | 0.00 | 0.00 | 0.00 | 85 | 1014.4 |
| 20260506121027 | 66 | 193 | 2.6 | 4.3 | 0.00 | 0.00 | 0.00 | 85 | 1014.3 |
| 20260506120525 | 66 | 184 | 2.6 | 4.3 | 0.00 | 0.00 | 0.00 | 86 | 1014.5 |
| 20260506120022 | 66 | 186 | 1.7 | 2.6 | 0.00 | 0.00 | 0.00 | 86 | 1014.7 |
| 20260506115520 | 66 | 189 | 0.9 | 0.9 | 0.00 | 0.00 | 0.00 | 86 | 1014.4 |
| 20260506115018 | 66 | 171 | 3.5 | 4.3 | 0.00 | 0.00 | 0.00 | 86 | 1014.4 |
| 20260506114515 | 66 | 210 | 0.9 | 1.7 | 0.00 | 0.00 | 0.00 | 86 | 1014.5 |
| 20260506114014 | 66 | 218 | 0.9 | 0.9 | 0.00 | 0.00 | 0.00 | 87 | 1014.9 |
| 20260506113511 | 65 | 207 | 2.6 | 2.6 | 0.00 | 0.00 | 0.00 | 87 | 1014.5 |
| 20260506113008 | 65 | 187 | 0.9 | 0.9 | 0.00 | 0.00 | 0.00 | 87 | 1014.4 |
| 20260506112505 | 65 | 208 | 2.6 | 4.3 | 0.00 | 0.00 | 0.00 | 87 | 1014.1 |
| 20260506112002 | 65 | 149 | 2.6 | 2.6 | 0.00 | 0.00 | 0.00 | 88 | 1014.3 |
| 20260506111500 | 64 | 177 | 3.5 | 5.2 | 0.00 | 0.00 | 0.00 | 88 | 1014.4 |
| 20260506110957 | 64 | 182 | 2.6 | 4.3 | 0.00 | 0.00 | 0.00 | 89 | 1014.4 |
| 20260506110455 | 64 | 182 | 1.7 | 1.7 | 0.00 | 0.00 | 0.00 | 89 | 1014.1 |
| 20260506105951 | 64 | 203 | 2.6 | 2.6 | 0.00 | 0.00 | 0.00 | 89 | 1014.0 |
| 20260506105447 | 64 | 203 | 2.6 | 2.6 | 0.00 | 0.00 | 0.00 | 89 | 1014.1 |
| 20260506104945 | 64 | 160 | 2.6 | 2.6 | 0.00 | 0.00 | 0.00 | 89 | 1014.2 |
| 20260506104443 | 64 | 150 | 0.0 | 0.9 | 0.00 | 0.00 | 0.00 | 89 | 1014.3 |
| 20260506103941 | 64 | 201 | 2.6 | 2.6 | 0.00 | 0.00 | 0.00 | 90 | 1014.5 |
| 20260506103438 | 64 | 166 | 0.9 | 1.7 | 0.00 | 0.00 | 0.00 | 89 | 1014.4 |
| 20260506102935 | 64 | 148 | 1.7 | 1.7 | 0.00 | 0.00 | 0.00 | 90 | 1014.4 |
| 20260506102433 | 64 | 174 | 2.6 | 2.6 | 0.00 | 0.00 | 0.00 | 89 | 1014.4 |
| 20260506101930 | 64 | 161 | 1.7 | 2.6 | 0.00 | 0.00 | 0.00 | 89 | 1014.4 |
| 20260506101426 | 64 | 191 | 2.6 | 2.6 | 0.00 | 0.00 | 0.00 | 89 | 1014.2 |
| 20260506100924 | 64 | 187 | 0.9 | 0.9 | 0.00 | 0.00 | 0.00 | 90 | 1014.2 |
| 20260506100422 | 64 | 172 | 0.9 | 0.9 | 0.00 | 0.00 | 0.00 | 90 | 1013.9 |
| 20260506095919 | 64 | 146 | 0.9 | 0.9 | 0.00 | 0.00 | 0.00 | 90 | 1014.0 |
| 20260506095418 | 64 | 160 | 0.9 | 1.7 | 0.00 | 0.00 | 0.00 | 89 | 1013.9 |
| 20260506094914 | 64 | 148 | 1.7 | 2.6 | 0.00 | 0.00 | 0.00 | 89 | 1014.0 |
| 20260506094412 | 64 | 186 | 1.7 | 2.6 | 0.00 | 0.00 | 0.00 | 89 | 1014.0 |
| 20260506093910 | 64 | 192 | 2.6 | 2.6 | 0.00 | 0.00 | 0.00 | 89 | 1014.1 |
| 20260506093407 | 64 | 187 | 1.7 | 2.6 | 0.00 | 0.00 | 0.00 | 88 | 1014.0 |
| 20260506092905 | 64 | 173 | 0.9 | 1.7 | 0.00 | 0.00 | 0.00 | 88 | 1014.1 |
| 20260506092403 | 64 | 232 | 0.0 | 0.9 | 0.00 | 0.00 | 0.00 | 88 | 1014.1 |
| 20260506091859 | 64 | 181 | 1.7 | 2.6 | 0.00 | 0.00 | 0.00 | 88 | 1014.3 |
| 20260506091357 | 64 | 174 | 2.6 | 2.6 | 0.00 | 0.00 | 0.00 | 88 | 1014.2 |
| 20260506090854 | 64 | 186 | 0.9 | 1.7 | 0.00 | 0.00 | 0.00 | 88 | 1014.2 |
| 20260506090352 | 64 | 187 | 0.9 | 1.7 | 0.00 | 0.00 | 0.00 | 88 | 1014.5 |
| 20260506085848 | 64 | 150 | 0.9 | 0.9 | 0.00 | 0.00 | 0.00 | 88 | 1014.4 |
| 20260506085344 | 64 | 212 | 0.9 | 0.9 | 0.00 | 0.00 | 0.00 | 88 | 1014.6 |
| 20260506084841 | 64 | 185 | 0.9 | 0.9 | 0.00 | 0.00 | 0.00 | 88 | 1014.4 |
| 20260506084338 | 64 | 210 | 1.7 | 1.7 | 0.00 | 0.00 | 0.00 | 87 | 1014.5 |